Tulsa, OK

4:43 PM CDT on June 24, 2018 (GMT -0500)
Tulsa International

Weather History for KTUL - October, 2017

Change the Weather History Date:

Friday, October 13, 2017

  Actual Average Record
Temperature  
Mean Temperature 77 °F 63 °F  
Max Temperature 88 °F 74 °F 92 °F (1963)
Min Temperature 66 °F 51 °F 32 °F (1917)
Degree Days  
Heating Degree Days 0 4  
Month to date heating degree days 16 45  
Since 1 July heating degree days 16 69  
Cooling Degree Days 12 2  
Month to date cooling degree days 90 39  
Year to date cooling degree days 2100 2004  
Growing Degree Days 27 (Base 50)    
Moisture  
Dew Point 64 °F    
Average Humidity 66    
Maximum Humidity 78    
Minimum Humidity 53    
Precipitation  
Precipitation 0.00 in 0.13 in 3.50 in (1923)
Month to date precipitation 4.66 1.62  
Year to date precipitation 41.46 33.36  
Sea Level Pressure  
Sea Level Pressure 29.98 in    
Wind  
Wind Speed 12 mph (South)    
Max Wind Speed 21 mph    
Max Gust Speed 26 mph    
Visibility 10 miles    
Events      
T = Trace of Precipitation, MM = Missing Value Source: NWS Daily Summary

Daily Weather History Graph

Daily Weather History Graph

Search for Another Location

Airport or City:

Astronomy

Oct. 13, 2017 Rise Set
Actual Time 7:29 AM CDT 6:49 PM CDT
Civil Twilight 7:03 AM CDT 7:15 PM CDT
Nautical Twilight 6:33 AM CDT 7:45 PM CDT
Astronomical Twilight 6:03 AM CDT 8:15 PM CDT
Moon 1:05 AM CDT (10/13) 3:23 PM CDT (10/13)
Length of Visible Light 12h 12m
Length of Day
11h 20m
Last Quarter, 37% of the Moon is Illuminated
Oct 13
Last Quarter
Oct 19
New
Oct 27
First Quarter
Nov 4
Full
Nov 10
Last Quarter

Hourly Weather History & Observations

Time (CDT) Temp. Heat Index Dew Point Humidity Pressure Visibility Wind Dir Wind Speed Gust Speed Precip Events Conditions
12:53 AM 70.0 °F - 59.0 °F 68% 29.99 in 10.0 mi SSE 8.1 mph - N/A   Clear
1:53 AM 69.1 °F - 57.9 °F 68% 29.98 in 10.0 mi South 9.2 mph - N/A   Clear
2:53 AM 68.0 °F - 57.9 °F 70% 29.99 in 10.0 mi South 6.9 mph - N/A   Clear
3:53 AM 68.0 °F - 57.9 °F 70% 29.99 in 10.0 mi South 8.1 mph - N/A   Clear
4:53 AM 66.9 °F - 57.9 °F 73% 29.99 in 10.0 mi South 10.4 mph - N/A   Clear
5:53 AM 66.0 °F - 57.9 °F 75% 29.99 in 10.0 mi South 10.4 mph - N/A   Clear
6:53 AM 66.9 °F - 57.9 °F 73% 30.01 in 10.0 mi South 11.5 mph - N/A   Clear
7:53 AM 66.9 °F - 59.0 °F 76% 30.01 in 10.0 mi South 13.8 mph - N/A   Clear
8:53 AM 69.1 °F - 61.0 °F 75% 30.03 in 10.0 mi South 13.8 mph - N/A   Clear
9:53 AM 73.9 °F - 64.0 °F 71% 30.03 in 10.0 mi South 13.8 mph - N/A   Clear
10:53 AM 78.1 °F - 66.9 °F 68% 30.03 in 10.0 mi South 11.5 mph - N/A   Clear
11:53 AM 81.0 °F 83.8 °F 68.0 °F 65% 30.01 in 10.0 mi SSW 12.7 mph - N/A   Clear
12:53 PM 84.0 °F 87.0 °F 68.0 °F 58% 29.99 in 10.0 mi SSW 13.8 mph - N/A   Partly Cloudy
1:53 PM 86.0 °F 89.4 °F 68.0 °F 55% 29.97 in 10.0 mi SSW 16.1 mph 19.6 mph N/A   Partly Cloudy
2:53 PM 87.1 °F 90.6 °F 68.0 °F 53% 29.95 in 10.0 mi SSW 9.2 mph 25.3 mph N/A   Partly Cloudy
3:53 PM 88.0 °F 92.1 °F 69.1 °F 53% 29.93 in 10.0 mi South 15.0 mph - N/A   Partly Cloudy
4:53 PM 87.1 °F 92.0 °F 70.0 °F 57% 29.93 in 10.0 mi South 16.1 mph 24.2 mph N/A   Partly Cloudy
5:53 PM 86.0 °F 90.1 °F 69.1 °F 57% 29.92 in 10.0 mi South 18.4 mph - N/A   Partly Cloudy
6:53 PM 84.0 °F 87.8 °F 69.1 °F 61% 29.93 in 10.0 mi South 11.5 mph - N/A   Clear
7:53 PM 81.0 °F 84.4 °F 70.0 °F 69% 29.94 in 10.0 mi SSE 9.2 mph - N/A   Clear
8:53 PM 80.1 °F 83.2 °F 70.0 °F 71% 29.95 in 10.0 mi SSE 9.2 mph - N/A   Clear
9:53 PM 79.0 °F - 70.0 °F 74% 29.96 in 10.0 mi SSE 9.2 mph - N/A   Clear
10:53 PM 78.1 °F - 70.0 °F 76% 29.97 in 10.0 mi SSE 9.2 mph - N/A   Clear